Regional Weather Roundup
Issued by NWS

Home | Current Version | Previous Version | Text Only | Print | Product List | Glossary Off
Versions: 1 2 3 4 5 6 7 8 9 10 11 12 13 14 15 16 17 18 19 20 21 22 23 24 25 26 27 28 29 30 31 32 33 34 35 36 37 38 39 40 41 42 43 44 45 46 47 48 49

000
ASUS45 KTFX 291810
RWRMT
MONTANA REGIONAL WEATHER ROUNDUP
NATIONAL WEATHER SERVICE GREAT FALLS MT
1200 PM MDT MON JUN 29 2015

NOTE: "FAIR" INDICATES FEW OR NO CLOUDS BELOW 12000 FEET WITH NO
SIGNIFICANT WEATHER AND/OR OBSTRUCTIONS TO VISIBILITY.

MTZ001>007-043-291900-
WEST OF THE DIVIDE

CITY           SKY/WX    TMP DP  RH WIND       PRES   REMARKS
KALISPELL      CLOUDY    81  57  43 E7        30.03S
MISSOULA       CLOUDY    80  51  36 SW10      30.04F
BUTTE          MOSUNNY   88  44  21 VRB6      30.19F
MULLAN PASS    CLOUDY    73  52  47 CALM      30.24F
DEER LODGE       N/A     88  52  29 N6        30.16F
EUREKA           N/A     79  55  44 W5        30.04F
HAMILTON         N/A     81  55  41 N8        30.06S
PLAINS           N/A     78  54  43 CALM      30.03F
RONAN            N/A     80  66  62 W6        30.09F
$$

MTZ008-052>055-291900-
SOUTHWEST MONTANA

CITY           SKY/WX    TMP DP  RH WIND       PRES   REMARKS
BOZEMAN        SUNNY     88  51  28 VRB3      30.13F
DILLON         SUNNY     86  53  32 CALM      30.17F
W YELLOWSTONE  SUNNY     81  46  30 E5        30.32F
THREE FORKS      N/A     88  48  24 E3        30.10F
TWIN BRIDGES     N/A     85  47  26 SE6       30.13F
$$

MTZ009-010-012-014-046-048-049-054-291900-
EAST SLOPES AND CENTRAL MONTANA

CITY           SKY/WX    TMP DP  RH WIND       PRES   REMARKS
CUT BANK       CLOUDY    88  48  25 SE14G23   30.07F
GREAT FALLS    MOSUNNY   89  49  25 VRB5      30.07F
MALMSTROM AFB  PTSUNNY   87  50  27 N2        30.06F
HELENA         MOSUNNY   91  50  24 MISG      30.06F
CONRAD           N/A     84  67  56 NE3       30.09F
$$

MTZ011-013-016-021-045-047-050-051-291900-
NORTH CENTRAL MONTANA

CITY           SKY/WX    TMP DP  RH WIND       PRES   REMARKS
HAVRE          MOSUNNY   93  49  22 E15       30.03F HX  90
LEWISTOWN      SUNNY     90  54  29 E10       30.13
CHINOOK          N/A     91  52  25 E8        30.03F
FORT BENTON      N/A     90  52  27 E8        30.03
$$

MTZ017>020-022>027-061-062-291900-
NORTHEAST MONTANA

CITY           SKY/WX    TMP DP  RH WIND       PRES   REMARKS
GLASGOW        SUNNY     93  48  21 N10       30.00S
JORDAN           N/A     93  51  23 N13       30.03F HX  90
SIDNEY         SUNNY     91  64  40 SE9       29.96F HX  93
WOLF POINT     SUNNY     97  47  18 NW12      29.96F HX  93
MALTA            N/A     91  52  26 N5        30.00S
PLENTYWOOD       N/A     86  61  42 N3        29.98S
POPLAR           N/A     90  57  33 N7        29.97S
SCOBEY           N/A     85  62  45 NW8       30.00S
$$

MTZ028>42-056>058-291900-
SOUTHCENTRAL AND SOUTHEAST MONTANA

CITY           SKY/WX    TMP DP  RH WIND       PRES   REMARKS
BAKER          SUNNY     87  61  41 SW12      30.06F
BILLINGS       PTSUNNY   86  55  34 CALM      30.12F
LIVINGSTON     SUNNY     91  48  22 SE7       30.15F
MILES CITY     SUNNY     92  59  33 SW8       30.03F HX  91
BIG TIMBER       N/A     86  54  32 NE6       30.16F
EKALAKA          N/A     85  59  41 SW13      30.08S
FORSYTH          N/A     91  54  27 CALM      30.04F
LAUREL           N/A     90  54  29 E2        30.09F
ROUNDUP          N/A     92  42  17 E3        30.01F
$$

REGIONAL REPORTS...DAKOTAS

CITY           SKY/WX    TMP DP  RH WIND       PRES   REMARKS
WILLISTON      SUNNY     92  53  26 S9        29.97F
MINOT          SUNNY     86  60  41 NW9       29.94F
DICKINSON      SUNNY     86  61  42 VRB7      30.02S
BEACH          FAIR      90  59  35 SW13      30.03F
CROSBY         FAIR      84  64  51 E5        29.98S
BISMARCK       MOSUNNY   87  58  37 NW12      29.97S
GRAND FORKS    CLOUDY    75  63  66 NW10      29.85S
FARGO          SUNNY     77  64  64 N10       29.85S
BUFFALO SD       N/A    N/A N/A N/A MISG      30.02R
RAPID CITY     SUNNY     84  63  49 N8        30.10S
$$

REGIONAL REPORTS...WYOMING/IDAHO/WASHINGTON

CITY           SKY/WX    TMP DP  RH WIND       PRES   REMARKS
GILLETTE       SUNNY     85  57  38 CALM      30.16F
SHERIDAN       SUNNY     89  54  30 W6        30.15F
BUFFALO WY     SUNNY     86  46  24 N12       30.23S
CODY           SUNNY     88  45  22 CALM      30.22S
YELLOWSTONE LA   N/A     72  41  32 E5        30.45S
IDAHO FALLS    SUNNY     87  65  47 NW8       30.15S
SALMON           N/A     86  48  26 W3        30.06F
BOISE          MOSUNNY   93  54  26 W8        29.97F HX  91
SPOKANE        CLOUDY    90  56  31 SW15      29.99S
$$

REGIONAL REPORTS...ALBERTA

CITY           SKY/WX    TMP DP  RH WIND       PRES   REMARKS
EDMONTON       MOSUNNY   68  52  56 S7        30.10R
CALGARY        LGT RAIN  68  55  64 NE5       30.14R
LETHBRIDGE     CLOUDY    77  63  61 NW5       30.07R
MEDICINE HAT   CLOUDY    88  52  29 E15       30.02F
WATERTON GATE    N/A     72  61  68 CALM        N/A
CARDSTON         N/A     73  64  73 N3          N/A
MILK RIVER       N/A     88  52  29 SE14        N/A
$$

REGIONAL REPORTS...SASKATCHEWAN

CITY           SKY/WX    TMP DP  RH WIND       PRES   REMARKS
SWIFT CURRENT  SUNNY     84  48  28 N9        30.08S
REGINA         CLOUDY    84  57  39 N15       30.00R SMOKE
SASKATOON      SMOKE     79  45  29 NE12G18   30.06F VSB 3/4
CYPRESS HILLS    N/A     79  45  29 E9          N/A
VAL MARIE        N/A     88  48  25 NE12G17     N/A
ROCKGLEN         N/A     82  54  36 N10G18      N/A
$$



USA.gov is the U.S. government's official web portal to all federal, state and local government web resources and services.